Location: Maignaut
(43.8886°N, 0.4051°E)
Time: 19:56:37
(UTC+00:00)

ERS-2 - Pass Details

Date: 17 January 2021
Orbit: 492 x 497 km, 98.6° (Epoch: 28 February)

Event Time Altitude Azimuth Distance (km) Brightness Sun altitude
Exits shadow 18:46:33 17° 358° (N) 1,301 4.1 -20.8°
Maximum altitude 18:49:06 50° 288° (WNW) 638 2.9 -21.2°
Drops below altitude 10° 18:52:36 10° 212° (SSW) 1,682 5.3 -21.9°
Sets 18:54:41 0° 207° (SSW) 2,559 6.2 -22.2°
